TimeMST,TemperatureF,Dew PointF,Humidity,Sea Level PressureIn,VisibilityMPH,Wind Direction,Wind SpeedMPH,Gust SpeedMPH,PrecipitationIn,Events,Conditions,WindDirDegrees,DateUTC
12:53 AM,26.1,15.1,63,29.94,10.0,WSW,4.6,-,N/A,,Clear,240,2012-11-08 07:53:00
1:53 AM,26.1,14.0,60,29.91,10.0,WSW,3.5,-,N/A,,Clear,250,2012-11-08 08:53:00
2:53 AM,24.1,15.1,69,29.89,10.0,WSW,4.6,-,N/A,,Clear,240,2012-11-08 09:53:00
3:53 AM,23.0,15.1,72,29.87,10.0,WSW,6.9,-,N/A,,Clear,250,2012-11-08 10:53:00
4:53 AM,21.0,14.0,74,29.89,10.0,SW,4.6,-,N/A,,Clear,230,2012-11-08 11:53:00
5:53 AM,19.9,14.0,78,29.93,10.0,SW,6.9,-,N/A,,Clear,230,2012-11-08 12:53:00
6:53 AM,19.9,16.0,85,29.98,10.0,WSW,5.8,-,N/A,,Clear,250,2012-11-08 13:53:00
7:53 AM,27.0,18.0,69,29.98,10.0,South,4.6,-,N/A,,Clear,190,2012-11-08 14:53:00
8:53 AM,45.0,21.0,39,29.89,10.0,SE,11.5,-,N/A,,Clear,130,2012-11-08 15:53:00
9:53 AM,48.9,21.0,33,29.87,10.0,SE,11.5,-,N/A,,Clear,140,2012-11-08 16:53:00
10:53 AM,53.1,21.0,29,29.86,10.0,SW,18.4,29.9,N/A,,Clear,220,2012-11-08 17:53:00
11:02 AM,51.8,21.2,30,30.02,10.0,South,17.3,25.3,N/A,,Clear,170,2012-11-08 18:02:00
11:53 AM,53.1,21.0,29,29.85,10.0,SSW,18.4,25.3,N/A,,Clear,210,2012-11-08 18:53:00
12:53 PM,53.1,19.0,26,29.81,10.0,SSW,19.6,27.6,N/A,,Clear,200,2012-11-08 19:53:00
1:53 PM,55.9,19.0,24,29.77,10.0,SSW,25.3,31.1,N/A,,Clear,210,2012-11-08 20:53:00
2:53 PM,55.9,18.0,23,29.77,10.0,SSW,24.2,35.7,N/A,,Partly Cloudy,210,2012-11-08 21:53:00
3:53 PM,54.0,19.9,26,29.77,10.0,SSW,17.3,26.5,N/A,,Partly Cloudy,200,2012-11-08 22:53:00
4:53 PM,51.1,19.0,28,29.77,10.0,South,15.0,-,N/A,,Partly Cloudy,180,2012-11-08 23:53:00
5:53 PM,48.9,19.0,31,29.79,10.0,SSE,11.5,-,N/A,,Overcast,150,2012-11-09 00:53:00
6:53 PM,46.9,24.1,41,29.79,10.0,SSW,11.5,-,N/A,,Overcast,200,2012-11-09 01:53:00
7:53 PM,45.0,27.0,49,29.77,10.0,South,6.9,-,N/A,,Overcast,180,2012-11-09 02:53:00
8:53 PM,39.9,33.1,77,29.70,10.0,SSE,10.4,-,0.00,,Overcast,160,2012-11-09 03:53:00
9:53 PM,41.0,33.1,73,29.68,10.0,NNE,3.5,-,N/A,,Overcast,30,2012-11-09 04:53:00
10:53 PM,41.0,33.1,73,29.65,10.0,SE,10.4,-,0.00,Rain,Light Rain,140,2012-11-09 05:53:00
11:42 PM,42.8,33.8,70,29.87,10.0,SSE,13.8,-,0.00,,Overcast,150,2012-11-09 06:42:00
11:53 PM,42.1,34.0,73,29.62,9.0,SE,12.7,-,0.00,Rain,Light Rain,140,2012-11-09 06:53:00